Presure
145 121 98 127 85 139 84 89 89 86 113 89 90 149 148 148 145 151 138 149 152 160 117 164 141 199 197 187 107 126 174 181 170 170 166 131 159 127 134 106 127 124 136 123 193 161 153 138 162
89 90 121 111 94 84 88 84 130 122 88 90 92 151 152 156 91 128 147 115 131 170 178 230 97 209 197 185 201 189 152 200 194 193 169 157 137 127 127 128 153 128 130 119 108 112 137 84 127
142 95 147 123 150 161 116 87 87 90 90 91 100 147 135 158 158 84 84 151 88 89 95 91 205 178 158 121 192 157 176 191 193 199 199 178 171 163 170 134 167 133 126 88 93 142 127 122 119
103 130 144 113 88 165 101 153 147 140 89 96 152 142 158 144 166 157 134 159 123 145 142 250 237 98 180 97 103 184 183 176 201 190 206 195 187 191 161 171 179 171 87 131 168 123 157 130 148
168 171 130 83 184 78 97 94 84 133 109 96 153 153 158 146 158 167 160 168 158 135 129 226 231 147 168 195 110 116 139 189 194 161 141 199 195 194 192 182 184 116 169 160 158 139 129 133 134
84 92 87 89 83 85 92 160 93 153 125 160 153 140 132 150 88 114 134 95 99 100 118 193 222 126 160 194 148 145 193 203 192 186 202 198 186 154 159 119 144 129 131 105 140 165 131 177 145
97 88 84 85 87 89 91 137 119 96 170 169 148 135 125 165 100 89 96 99 107 111 127 215 232 167 206 121 122 133 123 186 132 118 121 122 127 121 81 116 150 153 164 144 112 168 145 152 178
92 88 85 85 88 90 77 155 152 111 137 172 184 141 128 167 162 164 154 172 191 254 158 235 251 212 210 125 201 201 124 138 194 183 191 194 169 86 189 157 133 180 139 145 169 175 175 177 150
92 96 84 87 132 105 89 104 180 170 168 160 110 121 109 117 103 128 110 137 112 117 139 125 225 122 188 206 148 181 125 127 117 135 132 141 141 143 139 119 143 170 156 179 183 200 173 152 154
151 101 154 112 80 88 104 120 157 163 159 169 145 100 128 157 86 88 165 179 99 249 220 229 224 126 128 206 140 156 133 114 113 117 134 127 128 140 183 168 159 172 178 184 142 135 150 149 141
157 174 149 189 191 98 215 248 224 186 184 191 191 117 100 83 152 168 207 120 100 247 239 226 162 198 182 204 185 139 138 196 191 130 183 190 183 166 171 172 175 188 179 133 144 145 145 156 130
82 98 86 129 95 212 139 231 242 207 174 162 178 87 115 93 100 168 231 236 215 248 236 212 140 214 128 191 187 195 196 113 178 178 178 182 163 173 175 180 185 181 142 145 146 151 133 134 148
138 139 180 154 207 141 176 237 194 136 165 192 152 145 172 158 167 163 255 183 208 246 231 218 151 146 212 132 111 126 109 169 184 163 172 116 170 181 176 178 166 141 146 149 135 134 143 151 149
91 92 124 136 197 167 153 124 154 155 150 159 159 161 175 149 162 151 171 229 217 218 222 158 192 193 182 165 95 184 159 166 175 167 151 183 144 182 136 145 150 156 153 136 141 150 146 142 143
212 145 106 186 126 207 167 128 221 193 144 183 159 165 167 116 156 161 112 109 239 235 168 161 219 222 200 90 185 175 182 139 198 189 173 189 151 154 161 155 134 105 138 146 151 150 142 144 141
177 110 146 121 101 142 127 135 147 150 186 167 160 162 169 164 162 160 202 109 217 227 184 225 181 184 190 174 178 181 135 193 166 152 155 161 163 143 111 142 150 153 153 152 144 145 141 181 167
186 145 90 177 198 159 133 116 144 152 131 173 160 175 171 148 164 162 144 211 207 175 183 213 204 200 201 196 157 143 148 150 158 170 139 143 145 151 157 158 153 128 149 156 142 146 175 160 152
169 207 192 184 129 138 215 145 138 82 84 154 166 177 169 145 164 194 156 151 182 176 210 152 167 184 181 150 152 157 121 143 97 98 154 154 119 153 153 147 149 153 136 151 171 161 167 173 164
171 173 177 146 199 110 134 149 125 155 169 169 161 179 170 157 135 177 169 167 169 161 158 161 162 110 158 157 95 153 160 160 96 153 159 148 145 146 145 159 151 137 154 167 165 163 172 161 159
166 168 175 114 194 188 208 136 162 146 166 175 160 179 143 166 147 136 152 164 161 165 154 162 119 150 148 157 159 160 160 116 147 122 143 139 152 159 164 160 147 150 162 172 147 159 172 172 157
103 187 166 145 188 196 178 124 191 122 120 125 153 127 133 139 155 152 152 149 160 163 167 155 150 160 163 169 166 157 141 148 89 139 151 139 136 145 161 152 166 179 166 162 158 167 159 174 172
179 193 173 193 184 182 196 208 104 104 102 134 150 145 164 168 158 145 154 176 161 160 164 169 164 168 167 153 134 111 145 147 161 125 127 153 143 157 167 116 163 160 132 163 152 166 169 173 160
194 187 202 180 179 189 206 198 194 140 102 106 148 165 164 174 109 159 102 104 161 174 159 132 128 128 99 168 157 160 138 168 158 134 95 172 103 106 151 129 173 170 168 167 167 164 145 164 159
156 101 202 170 190 173 202 137 123 166 175 168 144 172 172 175 177 118 121 106 105 106 113 166 169 108 155 128 135 171 168 166 169 109 163 134 142 165 173 168 174 167 167 166 167 178 174 124 107
178 166 149 160 192 183 183 198 130 136 135 162 159 154 127 99 168 104 100 98 180 178 170 101 164 145 146 150 154 174 163 140 149 149 170 163 164 160 167 174 157 168 162 166 179 186 168 140 189
90 158 193 90 194 160 120 194 191 176 162 159 167 165 116 95 96 98 102 177 152 165 150 170 148 161 172 172 166 130 165 145 148 167 172 169 180 176 162 160 165 167 169 187 180 167 185 192 192
172 176 178 171 187 133 168 193 200 155 174 138 152 156 176 171 166 158 155 95 160 167 152 154 167 145 144 145 177 175 77 156 170 167 171 171 163 158 164 172 176 179 182 174 173 190 190 178 168
175 182 169 174 170 154 193 144 204 177 166 157 114 174 163 143 168 114 117 164 169 156 172 154 174 148 104 168 163 174 169 166 179 181 181 170 153 176 175 179 186 175 174 190 183 181 186 184 196
159 158 165 194 183 194 172 190 209 147 148 113 92 93 178 175 143 150 160 169 175 177 145 165 151 167 176 163 167 170 169 182 179 168 163 158 177 177 189 157 178 183 194 197 188 183 206 182 168
195 195 153 189 176 194 169 181 203 182 157 157 141 130 136 182 167 170 137 171 141 155 135 136 174 168 179 163 161 182 181 171 163 172 175 176 190 135 129 187 189 196 185 160 213 203 141 207 159
Wind_Speed
43 28 17 31 9 36 9 7 6 6 11 9 12 24 24 25 25 29 23 26 31 36 19 38 22 44 45 48 13 25 50 57 55 56 53 33 50 32 35 24 33 29 37 31 62 43 40 43 51
18 14 29 23 14 10 10 5 24 17 9 10 13 30 28 30 9 22 24 18 24 39 42 42 12 42 41 42 43 46 37 46 47 53 55 47 39 37 36 35 43 36 35 34 29 35 45 28 42
48 22 50 32 49 48 23 9 5 12 12 16 17 28 21 32 33 9 15 27 13 15 15 16 36 32 31 20 40 31 42 42 41 43 50 57 54 49 52 38 46 37 28 25 29 46 41 40 38
31 42 48 24 8 50 8 38 32 30 13 17 34 26 32 27 35 32 28 30 24 26 25 37 40 21 35 17 20 41 42 45 39 45 42 50 54 52 42 45 46 42 25 40 46 42 51 41 49
61 63 36 14 61 11 7 17 7 30 21 17 33 32 32 27 34 37 34 35 34 27 25 29 37 25 31 36 21 22 25 42 40 34 27 44 48 47 47 43 42 31 39 42 47 42 42 45 47
11 9 11 12 14 14 19 39 15 37 26 39 33 27 26 32 12 22 27 20 20 21 23 26 35 25 28 37 29 27 40 38 40 42 40 43 41 35 40 35 35 39 40 35 43 47 43 48 50
26 14 17 18 17 22 12 32 24 20 43 42 33 24 23 37 18 16 19 23 23 22 26 28 33 28 35 28 29 26 25 32 24 23 25 28 33 28 25 31 38 37 39 41 38 44 47 45 44
23 20 22 21 21 18 16 45 40 28 32 44 49 26 25 36 33 34 31 36 37 23 25 28 31 33 32 28 32 33 27 28 35 34 39 38 35 26 35 36 37 38 42 44 42 43 43 42 41
22 30 24 26 31 28 23 27 51 45 40 37 21 26 20 23 21 26 23 29 22 24 23 26 29 30 27 30 29 31 29 30 29 34 32 33 36 38 37 36 43 37 41 41 41 40 40 43 44
45 34 39 27 20 20 29 35 37 40 36 40 33 25 30 31 22 22 34 25 26 21 23 27 28 32 32 29 28 28 33 27 30 33 35 32 35 40 32 34 39 37 39 39 39 42 42 43 45
54 48 39 36 39 25 42 44 46 51 46 48 44 29 25 23 30 32 32 26 30 21 23 25 21 27 27 30 29 34 36 29 30 33 30 29 29 30 36 36 36 38 37 39 42 43 45 46 52
30 35 32 42 33 38 38 38 43 41 41 34 34 28 30 33 31 32 24 22 26 23 24 25 34 31 34 28 27 26 28 31 27 29 29 29 32 34 35 36 36 35 39 41 45 46 50 52 51
43 40 33 31 35 36 32 36 36 27 37 39 30 29 31 29 30 33 19 25 28 26 26 28 26 31 32 34 32 30 34 29 25 32 30 38 33 34 33 35 36 42 41 43 47 51 53 51 55
40 27 44 38 32 29 31 31 34 36 38 35 37 27 29 34 33 32 27 24 28 26 27 25 26 30 32 27 31 25 28 30 28 33 33 32 36 34 39 40 41 40 43 49 50 49 52 57 59
38 46 27 34 39 28 34 30 37 39 31 42 28 30 34 32 33 31 32 30 24 26 25 30 26 28 22 29 25 27 26 33 28 30 33 33 37 39 37 39 46 50 50 51 49 52 55 57 62
42 43 46 28 31 38 27 34 35 36 42 38 33 36 36 35 32 32 26 29 23 25 21 26 22 23 23 25 26 26 35 30 32 34 36 35 33 43 49 47 45 46 48 51 54 56 59 59 61
35 33 42 23 22 32 36 29 32 36 29 39 36 36 35 30 34 35 29 22 20 21 22 21 22 24 26 25 30 33 32 33 33 31 37 42 43 42 44 45 47 44 54 56 58 61 61 64 67
45 43 24 25 29 33 30 42 29 16 14 37 38 35 35 30 34 28 35 32 27 25 18 28 25 25 25 31 31 30 35 33 39 43 37 38 35 42 47 52 54 54 59 61 63 65 65 61 60
39 36 32 36 27 36 41 43 34 35 45 42 36 36 38 36 29 33 36 35 31 32 31 30 28 36 27 30 38 34 34 35 44 38 40 42 46 47 52 59 57 61 62 66 69 69 68 64 67
48 31 43 34 27 30 29 33 39 36 42 43 35 36 29 39 33 32 34 37 36 36 34 31 34 33 33 32 35 37 39 41 41 39 46 51 50 55 58 60 61 65 67 69 69 68 73 75 73
39 35 44 40 27 27 38 42 45 32 33 31 37 30 31 33 39 38 37 34 35 39 37 35 35 37 39 39 38 38 44 45 45 50 52 54 57 60 62 62 68 70 68 69 72 75 74 75 80
38 36 47 32 28 33 40 47 34 29 29 35 38 38 40 40 41 35 40 40 39 39 41 40 38 40 41 38 46 47 50 49 51 55 58 58 61 60 65 63 69 68 71 73 77 77 79 82 79
48 38 48 22 30 33 42 45 48 40 26 32 43 46 46 40 33 45 33 34 44 45 39 43 46 48 42 47 44 50 54 57 55 61 44 67 60 63 63 68 73 73 72 75 80 76 82 81 85
52 28 49 37 28 39 38 46 32 52 50 51 45 48 46 45 46 39 38 36 40 43 47 45 47 34 47 53 54 58 58 61 65 50 62 65 70 73 73 74 77 73 77 79 82 88 84 61 53
35 45 28 51 32 41 41 50 45 40 41 50 46 45 43 27 45 34 36 40 51 52 49 45 46 47 50 45 51 66 62 64 59 62 72 73 73 72 81 81 75 83 82 87 95 94 87 76 103
29 52 43 26 39 46 43 45 56 53 45 48 49 48 37 30 32 38 42 51 44 49 42 52 47 53 63 65 61 63 69 62 67 77 80 79 86 87 78 80 86 89 90 102 97 88 103 107 102
51 41 37 40 41 43 47 48 55 40 51 46 44 45 48 52 51 45 49 44 50 54 48 44 59 55 58 62 73 75 23 69 79 78 84 88 81 80 87 93 97 102 104 96 94 108 109 94 85
53 43 45 39 45 46 51 52 56 56 51 48 36 53 48 42 51 41 48 54 58 48 62 61 67 63 48 68 69 81 80 78 89 91 93 86 80 96 98 103 109 97 97 111 100 95 99 86 114
48 50 44 52 43 49 49 54 58 38 39 39 33 35 56 56 45 52 58 60 65 66 59 60 59 69 77 69 75 81 84 93 91 83 81 81 103 103 112 85 97 104 118 113 86 80 123 81 63
62 61 51 50 46 55 51 49 59 55 49 52 48 50 49 61 56 62 56 61 61 64 57 64 77 73 85 73 73 94 95 87 82 95 101 102 116 70 65 107 108 119 83 72 130 114 78 104 83
Wind_Direction
232 226 216 241 211 247 211 222 244 282 254 313 324 259 260 264 275 267 270 272 274 276 290 274 281 261 256 253 314 279 253 253 255 257 256 261 259 272 267 293 278 280 273 275 275 273 283 270 281
210 221 235 228 224 220 230 218 249 251 305 304 309 259 261 269 278 282 265 265 281 280 281 259 306 254 254 255 249 250 260 249 251 251 256 256 263 271 274 276 271 274 276 282 294 284 270 312 283
233 231 241 236 246 247 240 244 257 264 281 295 295 256 252 271 274 289 292 271 285 288 290 298 250 251 258 281 251 262 250 249 252 251 252 256 260 263 263 271 270 278 300 308 313 271 277 280 288
223 240 240 226 207 246 264 241 239 244 281 282 256 260 266 264 279 277 277 279 268 270 275 240 238 291 254 299 303 248 250 251 249 251 257 254 256 262 265 271 275 276 307 272 276 284 274 280 282
239 239 239 203 249 218 282 262 249 251 266 274 256 260 266 270 277 283 278 285 281 269 272 240 232 262 257 245 291 280 268 249 253 262 278 257 260 264 269 273 279 285 273 268 268 278 288 286 284
235 222 229 242 225 246 266 243 285 243 254 255 256 261 267 270 268 281 279 283 288 292 281 253 232 282 258 242 260 270 244 249 253 257 259 259 269 274 277 282 289 274 278 295 278 278 291 285 285
210 232 233 242 245 257 258 245 274 280 247 253 255 262 263 272 277 285 286 282 284 281 275 238 223 250 231 279 281 281 286 255 293 302 293 290 280 283 309 295 282 271 269 275 298 285 285 290 291
230 235 239 241 247 248 232 250 240 264 255 251 260 256 262 269 274 273 278 286 287 230 257 221 211 225 225 276 235 236 280 278 254 265 264 272 275 299 283 265 280 280 279 278 285 285 289 288 296
222 234 240 244 253 259 279 263 242 250 247 246 256 259 252 267 263 272 279 283 285 282 266 269 215 271 234 225 264 245 278 278 291 274 282 275 272 271 276 293 276 275 281 282 283 283 286 291 290
233 232 235 244 222 256 258 255 240 242 244 247 248 258 265 269 283 281 280 279 287 226 227 216 214 268 271 222 266 258 273 291 294 295 279 293 289 278 271 274 283 280 280 282 287 290 292 289 289
230 234 237 244 246 240 250 252 248 242 245 249 253 259 266 274 271 276 283 279 282 231 220 219 254 225 236 222 239 266 268 257 266 296 271 269 268 275 272 279 280 277 282 288 294 291 290 292 290
224 236 237 233 247 246 242 250 244 243 241 248 243 265 265 270 276 271 267 257 252 230 224 223 261 221 267 237 247 247 254 282 262 267 273 273 277 276 279 279 278 281 290 292 288 290 289 289 292
221 228 230 234 240 250 254 249 242 251 245 245 251 254 258 264 265 267 261 261 252 230 222 224 257 261 226 274 276 280 291 266 265 274 274 295 279 275 278 276 281 285 286 286 288 287 289 295 296
220 230 233 245 240 248 253 254 242 237 245 245 244 250 251 261 259 263 270 243 238 235 228 258 239 246 248 256 287 250 268 270 270 275 289 268 291 274 284 282 284 289 289 285 285 290 290 291 295
252 231 229 229 247 244 248 253 229 226 248 232 244 245 247 271 265 271 262 268 237 231 250 254 225 227 236 288 252 264 260 277 269 264 285 269 287 287 289 290 287 304 286 284 294 295 289 293 294
212 218 228 223 236 245 248 252 245 249 227 241 240 246 246 256 265 268 255 276 241 239 257 226 256 257 250 256 259 265 272 270 282 291 289 288 289 285 300 285 287 292 295 294 288 291 290 300 297
202 222 230 227 231 241 245 250 242 245 246 237 242 244 248 258 259 263 266 263 264 254 258 241 241 244 247 250 268 279 290 288 288 289 295 283 284 288 293 296 294 296 291 295 290 293 300 296 294
205 252 203 226 235 241 252 242 233 261 279 242 239 243 247 255 260 260 266 270 264 263 253 271 267 259 262 280 281 285 293 289 305 308 285 286 295 293 294 289 292 294 291 296 296 300 300 302 300
208 212 217 227 253 242 235 235 236 241 237 241 243 245 246 255 254 259 265 267 266 268 271 273 275 286 280 286 291 287 286 288 308 286 292 286 286 287 287 294 294 290 298 297 299 301 301 294 292
210 236 224 234 226 230 248 229 232 239 240 239 244 247 250 255 260 255 266 267 270 269 279 279 281 278 277 283 286 290 291 302 288 299 281 284 292 297 294 296 296 297 297 296 294 296 301 301 301
231 227 222 226 232 237 236 237 223 246 256 252 243 254 250 252 258 264 267 272 272 279 277 280 280 286 288 289 292 289 283 288 308 281 293 289 291 294 299 298 299 296 296 298 295 298 294 302 302
224 235 229 239 232 235 242 229 252 259 267 250 246 253 251 251 257 261 269 266 277 282 289 284 290 289 291 288 283 292 297 297 297 288 288 296 293 297 299 301 298 295 301 296 300 296 299 303 297
241 237 248 223 230 242 237 230 230 237 267 274 245 251 256 251 274 266 279 282 277 275 283 277 288 287 298 294 290 294 287 296 297 289 309 293 300 301 291 297 299 298 294 293 297 293 294 296 294
227 237 246 226 239 236 235 232 237 236 237 244 250 253 254 256 256 271 277 285 287 286 291 290 291 301 297 290 289 295 295 295 294 305 300 295 287 296 296 295 298 294 295 293 294 302 298 295 293
217 218 236 225 247 233 237 235 242 239 247 248 253 256 259 267 265 278 282 281 276 280 286 295 291 273 286 285 285 292 287 285 286 287 293 292 295 291 295 300 290 299 295 300 302 301 295 298 300
244 218 249 257 248 228 246 243 237 237 240 250 255 254 265 274 280 282 283 276 279 279 272 292 274 289 293 293 299 289 294 285 284 295 296 296 296 300 295 294 299 298 297 301 301 297 300 300 301
214 210 211 215 240 244 236 245 239 238 240 250 256 261 257 262 269 275 278 288 281 286 276 283 289 279 279 279 291 293 299 287 296 297 297 297 295 293 297 297 299 300 300 300 298 300 301 299 302
228 231 222 226 237 239 242 240 243 242 247 255 274 258 265 269 269 281 284 280 282 285 287 281 288 286 294 297 292 291 293 296 293 294 295 293 290 299 300 299 297 297 296 298 297 297 300 303 300
223 223 223 247 243 249 241 246 242 243 249 264 270 277 262 265 263 272 276 279 282 284 281 295 284 294 292 295 296 295 296 293 295 294 292 292 299 298 295 297 296 300 299 297 298 295 300 292 285
237 241 231 244 235 245 244 248 239 242 253 262 256 264 266 262 275 273 273 281 280 283 286 286 292 295 291 292 290 293 295 297 291 297 296 297 295 297 298 297 298 300 305 289 298 301 298 289 276